Temp
56 57 49 49 51 52 49 48 47 54 52 47 52 53 58 59 58 58 59 60 60 59 60 59 58 58 57 58 57 56 54 54 54 51 48 47 47 48 51 52 56 58 62 66
54 47 49 49 49 49 48 47 48 51 50 48 52 51 56 57 56 57 57 58 59 59 60 59 58 57 56 56 56 54 53 53 53 51 49 45 45 48 51 51 54 56 58 59
49 46 48 48 47 48 46 43 42 41 47 51 48 52 54 56 56 57 58 58 58 57 56 57 57 56 56 54 54 53 52 51 52 51 51 46 47 48 47 48 51 54 56 57
46 47 45 45 45 46 44 44 43 42 41 44 50 46 53 55 55 55 57 57 57 57 57 57 56 55 55 53 54 53 51 50 51 51 49 46 42 42 45 46 48 52 54 55
42 43 43 43 44 45 43 44 42 42 40 41 45 44 54 54 54 55 56 56 57 57 56 55 55 53 54 53 51 52 51 50 50 49 48 47 43 43 45 46 46 50 53 54
43 47 45 43 45 45 45 43 43 42 41 32 39 42 53 54 53 55 57 57 56 56 56 56 55 54 54 53 52 51 50 50 49 49 47 46 45 45 44 45 44 46 50 52
42 42 44 44 42 44 44 42 33 32 30 36 39 38 52 57 57 55 55 56 57 57 57 56 54 53 52 50 50 49 48 47 48 47 45 45 46 47 47 45 45 44 47 49
39 36 41 43 41 40 41 42 36 31 35 40 37 38 52 57 57 57 57 57 56 56 56 55 54 53 51 49 49 49 48 47 47 46 44 45 47 48 48 48 47 47 45 46
36 36 41 41 43 42 39 38 41 32 25 31 44 49 55 55 55 55 55 55 56 56 55 55 54 53 51 50 48 48 48 47 46 44 44 45 46 46 46 48 50 50 49 48
37 35 35 39 42 42 40 43 35 34 30 33 39 42 49 49 53 56 55 55 56 56 55 55 54 52 50 49 48 48 48 47 46 44 44 44 44 44 46 47 47 49 51 50
35 36 32 36 35 39 38 37 38 39 35 32 33 48 56 55 57 56 56 55 55 54 54 54 53 52 50 48 48 47 47 46 45 44 44 43 42 43 45 45 46 48 49 50
42 37 35 34 36 39 39 40 43 39 32 34 30 40 52 55 56 53 54 54 54 52 52 52 52 51 50 48 47 46 46 46 45 44 44 42 42 43 42 43 44 45 47 50
43 37 33 33 34 36 34 40 42 39 36 33 32 45 48 50 48 51 50 52 50 50 50 50 49 50 50 49 47 47 46 45 45 45 44 42 41 40 40 40 41 43 44 46
44 33 34 40 39 40 31 34 40 37 32 36 35 37 43 38 39 43 42 41 41 42 41 45 47 47 47 46 46 46 45 45 44 45 44 41 40 40 39 40 40 40 42 43
42 33 32 34 37 38 37 35 34 32 40 36 37 32 40 39 38 37 40 44 39 35 34 35 34 36 39 41 42 43 45 42 44 44 43 41 41 40 39 39 39 39 40 41
42 34 32 33 31 31 30 34 34 33 35 35 35 34 50 52 48 38 37 39 40 42 36 33 36 33 33 34 39 42 35 40 44 41 42 43 42 41 38 38 38 38 38 39
38 34 32 33 30 28 31 30 35 35 36 38 33 44 51 46 45 44 46 45 43 48 51 43 43 35 36 37 40 41 43 43 43 42 38 38 36 36 37 36 38 37 36 37
37 34 33 32 32 31 40 41 42 38 38 40 43 44 47 48 50 50 53 53 52 52 53 52 50 47 42 42 37 43 43 43 42 42 42 41 41 37 34 34 39 37 37 36
39 39 33 32 32 39 46 35 36 37 44 44 42 47 50 49 48 52 55 54 57 57 54 52 54 52 48 44 41 41 40 40 40 40 40 38 38 37 38 37 38 37 38 38
35 37 35 29 30 31 46 40 44 44 41 54 49 49 49 47 45 56 55 54 55 54 52 50 49 47 46 45 43 41 39 39 38 38 38 38 37 37 37 37 35 35 35 34
27 29 28 31 31 36 46 40 42 38 46 49 51 51 49 45 55 51 50 50 51 50 47 48 47 45 44 42 39 37 37 37 39 36 35 35 36 35 37 35 35 34 34 34
30 28 27 31 29 29 39 39 43 50 47 46 47 50 48 50 48 47 50 48 48 46 44 44 43 42 41 37 37 35 36 37 34 33 32 31 30 33 33 31 31 31 32 31
32 40 33 37 37 45 44 48 48 46 47 48 48 47 48 47 49 49 50 50 48 47 44 42 41 36 34 33 34 33 33 32 29 28 27 28 29 30 31 31 31 31 31 33
35 39 35 35 42 43 42 48 46 46 47 49 47 48 46 47 50 51 51 50 47 43 39 36 35 34 35 33 32 35 33 31 29 29 28 29 27 30 29 32 33 33 32 32
40 37 33 34 39 40 42 45 49 49 48 46 47 47 46 48 49 52 48 43 43 41 35 35 35 35 35 34 34 33 31 30 31 30 30 31 31 30 31 31 33 32 34 35
38 37 38 38 44 49 53 49 47 45 46 48 44 43 42 43 44 44 43 42 41 39 35 35 35 35 36 35 34 33 32 31 31 32 32 33 32 32 32 32 31 34 35 35
MSLP
1018.50 1018.03 1018.60 1019.38 1019.37 1018.95 1019.16 1019.02 1018.68 1018.38 1019.36 1019.07 1017.29 1016.62 1015.97 1016.23 1016.47 1016.56 1016.55 1016.78 1017.12 1017.54 1018.32 1019.15 1019.59 1019.84 1020.03 1019.97 1020.00 1020.06 1019.92 1019.77 1019.43 1019.15 1018.64 1018.31 1017.97 1017.45 1016.69 1016.06 1014.97 1015.01 1015.06 1015.04
1019.18 1019.67 1020.57 1020.78 1020.60 1019.93 1019.78 1019.61 1019.29 1018.94 1019.52 1019.31 1017.35 1016.28 1015.69 1016.01 1016.16 1016.41 1016.56 1016.56 1016.80 1017.18 1017.68 1018.33 1019.10 1019.62 1019.80 1019.80 1019.83 1020.09 1020.16 1020.10 1019.92 1019.80 1019.67 1019.46 1018.76 1017.90 1017.63 1017.07 1016.07 1015.60 1015.74 1015.81
1020.05 1021.46 1021.65 1021.39 1021.28 1020.65 1020.63 1020.71 1020.78 1020.72 1019.88 1018.69 1017.86 1015.40 1015.05 1015.48 1016.01 1016.27 1016.66 1016.75 1016.81 1017.08 1017.56 1018.08 1018.72 1019.27 1019.68 1019.80 1019.87 1020.04 1020.23 1020.33 1020.21 1020.24 1019.84 1019.72 1018.84 1018.12 1017.66 1017.76 1017.13 1016.34 1016.59 1016.43
1021.54 1022.41 1022.27 1022.18 1021.98 1021.91 1021.40 1021.96 1021.76 1021.19 1020.49 1018.38 1017.77 1015.30 1014.33 1014.68 1015.00 1015.66 1016.12 1016.59 1016.85 1017.21 1017.56 1018.01 1018.64 1019.11 1019.58 1019.83 1020.03 1020.09 1020.30 1020.24 1020.24 1020.32 1020.11 1020.03 1019.98 1019.45 1019.27 1018.86 1018.24 1017.15 1017.30 1016.98
1022.53 1022.86 1022.88 1022.79 1022.86 1022.85 1022.49 1022.48 1022.15 1021.59 1020.72 1019.61 1017.45 1016.11 1013.92 1014.32 1014.14 1014.77 1015.65 1016.58 1016.93 1017.33 1017.75 1018.04 1018.50 1019.20 1019.68 1020.00 1020.10 1020.19 1020.28 1020.20 1020.27 1020.41 1020.42 1020.19 1019.98 1019.98 1019.75 1019.32 1018.54 1017.97 1017.72 1017.42
1023.00 1023.72 1023.75 1023.71 1023.56 1023.57 1023.27 1022.64 1022.13 1021.62 1020.72 1019.52 1017.67 1016.22 1013.33 1013.43 1014.10 1014.60 1015.22 1016.07 1016.85 1017.16 1017.53 1017.79 1018.23 1018.85 1019.24 1019.87 1020.05 1020.18 1020.35 1020.34 1020.40 1020.24 1020.53 1020.36 1020.21 1019.96 1020.03 1019.46 1018.95 1018.40 1018.24 1017.85
1023.32 1023.68 1024.20 1024.42 1023.86 1023.74 1023.31 1022.37 1021.97 1021.59 1020.64 1018.80 1017.79 1016.38 1013.21 1013.22 1013.84 1014.65 1015.20 1015.84 1016.41 1016.88 1017.20 1017.60 1018.01 1018.56 1019.13 1019.65 1020.17 1020.27 1020.35 1020.47 1020.62 1020.66 1020.55 1020.73 1020.56 1020.15 1019.94 1019.63 1019.51 1019.37 1018.89 1018.30
1023.46 1023.98 1024.43 1024.79 1024.51 1024.01 1023.54 1022.99 1022.51 1022.04 1020.69 1018.72 1017.71 1015.32 1012.96 1013.40 1014.00 1014.66 1015.22 1015.72 1016.34 1016.65 1016.99 1017.48 1018.01 1018.53 1019.20 1019.80 1019.90 1020.19 1020.34 1020.47 1020.49 1020.70 1021.00 1020.66 1020.55 1020.60 1020.00 1019.77 1019.65 1019.25 1018.84 1018.79
1023.71 1024.43 1025.01 1025.23 1025.08 1024.81 1024.14 1023.61 1023.38 1022.58 1022.20 1020.15 1016.35 1014.36 1013.39 1013.48 1013.75 1014.40 1014.98 1015.58 1015.92 1016.57 1017.15 1017.55 1018.08 1018.65 1018.97 1019.45 1019.92 1020.04 1020.16 1020.47 1020.80 1020.63 1020.31 1020.36 1020.50 1020.33 1020.29 1020.19 1019.80 1019.40 1019.24 1019.24
1023.80 1024.61 1025.38 1025.46 1025.46 1025.18 1024.61 1024.28 1023.70 1022.89 1021.90 1019.55 1016.42 1014.60 1013.09 1013.28 1013.44 1014.13 1014.84 1015.34 1015.91 1016.53 1017.12 1017.59 1017.99 1018.58 1019.22 1019.61 1019.89 1020.05 1020.12 1020.35 1020.65 1021.02 1020.97 1020.69 1020.65 1020.56 1020.29 1020.11 1020.03 1019.74 1019.39 1019.16
1024.16 1024.69 1025.74 1025.67 1025.20 1024.62 1024.85 1024.18 1023.61 1022.84 1022.39 1020.91 1018.02 1014.14 1013.02 1013.05 1013.52 1014.21 1014.98 1015.79 1016.25 1016.73 1017.10 1017.55 1018.15 1018.66 1019.28 1019.72 1020.03 1020.11 1020.22 1020.33 1020.57 1020.73 1020.90 1021.08 1020.71 1020.64 1020.60 1020.23 1019.95 1019.66 1019.36 1019.06
1023.99 1024.38 1024.82 1024.98 1025.24 1025.28 1024.78 1023.96 1023.24 1022.32 1022.65 1021.94 1020.63 1015.81 1014.21 1014.07 1014.42 1015.20 1015.69 1016.33 1016.77 1017.20 1017.52 1017.89 1018.32 1018.80 1019.20 1019.62 1020.07 1020.31 1020.51 1020.67 1020.94 1021.01 1021.07 1021.02 1021.04 1020.78 1020.58 1020.50 1020.25 1019.85 1019.56 1018.99
1023.97 1024.19 1024.50 1024.73 1025.33 1025.28 1024.74 1023.83 1023.39 1023.10 1022.53 1021.70 1020.92 1016.52 1015.59 1015.48 1015.75 1016.14 1016.58 1016.86 1017.35 1017.69 1018.00 1018.37 1018.71 1019.07 1019.17 1019.47 1019.84 1020.20 1020.61 1020.88 1021.10 1021.27 1021.38 1021.33 1021.25 1021.06 1020.77 1020.52 1020.33 1020.16 1019.92 1019.61
1024.06 1024.19 1023.91 1023.71 1023.47 1023.45 1024.05 1023.64 1023.34 1023.10 1022.58 1021.22 1019.67 1017.55 1016.49 1016.58 1016.63 1016.88 1017.19 1017.67 1017.86 1018.28 1018.55 1018.87 1019.03 1019.30 1019.53 1019.67 1019.87 1020.10 1020.39 1020.58 1020.77 1020.82 1020.77 1020.90 1021.19 1021.31 1020.97 1020.87 1020.47 1020.17 1020.17 1020.07
1024.22 1024.10 1023.87 1023.25 1023.15 1023.18 1022.93 1022.81 1022.92 1022.66 1021.21 1020.60 1018.67 1018.32 1016.27 1016.78 1017.07 1016.94 1017.37 1017.71 1017.99 1018.45 1018.94 1019.24 1019.61 1019.96 1020.00 1020.09 1020.30 1020.37 1020.48 1020.66 1020.69 1020.86 1021.02 1021.32 1021.51 1021.47 1021.46 1021.29 1020.77 1020.43 1020.35 1020.38
1024.28 1024.08 1024.00 1023.34 1023.22 1023.19 1022.66 1022.19 1022.13 1021.67 1021.14 1020.02 1019.12 1017.37 1015.88 1015.59 1015.88 1016.45 1016.80 1017.43 1017.74 1017.89 1018.38 1018.80 1019.50 1020.09 1020.33 1020.50 1020.63 1020.57 1020.82 1020.93 1020.82 1021.08 1021.38 1021.54 1021.69 1021.69 1021.82 1021.45 1020.93 1020.97 1020.84 1020.62
1024.24 1024.15 1024.07 1023.20 1022.75 1022.47 1021.52 1019.49 1019.56 1019.78 1019.35 1018.69 1018.14 1015.06 1014.95 1015.20 1015.61 1015.74 1015.87 1016.19 1016.63 1016.86 1017.25 1017.94 1018.57 1019.39 1019.85 1020.18 1020.39 1020.52 1020.51 1020.69 1020.88 1021.21 1021.61 1021.84 1022.10 1022.14 1021.86 1021.65 1021.57 1021.76 1021.45 1021.29
1023.80 1024.00 1023.72 1022.91 1022.16 1020.84 1017.90 1017.80 1017.98 1018.08 1017.14 1016.98 1015.76 1014.56 1014.62 1014.92 1014.96 1015.07 1015.04 1015.12 1015.25 1015.88 1016.47 1016.98 1017.58 1018.44 1019.29 1019.82 1020.17 1020.21 1020.29 1020.64 1020.83 1021.04 1021.30 1021.58 1021.70 1021.97 1022.17 1022.32 1022.21 1022.20 1022.02 1022.02
1023.69 1023.64 1023.16 1022.62 1021.30 1018.71 1016.58 1017.21 1017.50 1017.39 1014.70 1014.05 1014.00 1013.21 1014.17 1014.63 1014.86 1013.83 1013.77 1014.24 1014.34 1014.79 1015.74 1016.28 1016.84 1017.52 1018.67 1019.50 1020.10 1020.51 1020.77 1020.82 1020.92 1021.07 1021.37 1021.65 1021.81 1021.95 1022.16 1022.22 1022.38 1022.86 1022.96 1022.94
1024.07 1023.80 1023.13 1022.43 1020.77 1018.33 1016.21 1016.30 1016.54 1016.75 1014.52 1012.32 1012.60 1012.72 1013.68 1014.60 1014.45 1012.66 1012.61 1013.24 1014.02 1014.70 1015.41 1016.26 1016.86 1017.69 1018.53 1019.35 1019.95 1020.41 1020.71 1020.89 1021.02 1021.16 1021.36 1021.50 1021.65 1021.83 1022.22 1022.71 1022.78 1022.85 1023.07 1023.45
1023.60 1023.45 1022.38 1021.45 1019.84 1017.25 1015.34 1015.88 1016.41 1015.91 1013.71 1012.59 1012.45 1012.56 1013.19 1013.61 1012.80 1013.09 1013.32 1013.80 1014.37 1014.99 1015.71 1016.42 1017.09 1017.72 1018.30 1019.09 1019.90 1020.44 1020.74 1020.83 1020.96 1021.30 1021.61 1021.81 1021.93 1022.09 1022.10 1022.34 1022.85 1023.21 1023.34 1023.33
1020.09 1020.93 1020.98 1020.94 1019.68 1017.20 1014.83 1016.22 1015.39 1013.08 1012.51 1012.71 1012.87 1012.79 1013.04 1013.36 1013.28 1013.51 1013.86 1014.32 1014.84 1015.41 1016.13 1016.66 1017.35 1017.74 1018.35 1019.06 1019.72 1020.20 1020.53 1020.62 1021.07 1021.53 1021.83 1022.02 1022.20 1022.35 1022.50 1022.59 1022.83 1023.10 1023.47 1023.89
1018.22 1016.70 1017.44 1017.19 1015.50 1013.77 1013.78 1012.67 1012.55 1012.74 1012.91 1012.84 1013.10 1013.29 1013.49 1013.68 1013.70 1013.86 1014.16 1014.56 1015.05 1015.64 1016.23 1016.70 1017.31 1018.02 1018.44 1019.00 1019.59 1020.04 1020.07 1020.65 1021.26 1021.87 1022.31 1022.43 1022.48 1022.45 1022.45 1022.60 1022.76 1022.94 1023.27 1023.57
1016.49 1016.10 1016.15 1016.13 1013.80 1013.49 1013.37 1012.92 1012.73 1012.83 1012.85 1013.00 1013.19 1013.38 1013.72 1013.71 1013.81 1014.00 1014.45 1014.78 1015.21 1015.82 1016.45 1016.92 1017.51 1017.87 1018.30 1018.71 1019.14 1019.43 1019.72 1020.04 1020.76 1021.21 1021.83 1022.30 1022.73 1022.87 1022.88 1022.85 1022.79 1022.60 1022.81 1022.93
1014.77 1015.16 1015.16 1014.64 1013.64 1013.41 1012.99 1012.44 1012.00 1012.15 1012.47 1012.81 1013.02 1013.21 1013.46 1013.92 1013.95 1014.05 1014.29 1014.87 1015.24 1015.66 1016.36 1016.83 1017.12 1017.42 1017.52 1018.14 1018.66 1019.22 1019.76 1020.11 1020.38 1020.81 1021.27 1021.68 1022.01 1022.36 1022.63 1022.70 1022.46 1022.36 1022.12 1021.77
1013.72 1013.35 1013.35 1012.45 1011.96 1011.98 1011.55 1011.11 1011.50 1012.08 1012.16 1012.06 1012.79 1013.11 1013.20 1013.64 1013.76 1014.05 1014.25 1014.42 1014.99 1015.30 1015.90 1016.48 1016.69 1016.85 1016.82 1017.07 1017.73 1018.43 1019.13 1019.75 1020.10 1020.26 1020.48 1020.74 1021.05 1021.25 1021.50 1021.72 1021.93 1022.06 1022.04 1021.88
Wind_Speed
4 1 5 5 6 8 2 4 8 6 5 9 6 12 9 4 5 7 8 7 7 6 3 3 3 5 6 7 9 10 11 12 10 9 9 5 4 5 7 7 10 7 2 6
2 4 3 2 1 3 1 4 6 7 1 7 10 13 3 3 2 4 7 7 7 6 5 2 3 4 6 8 9 9 10 11 9 8 6 4 6 4 6 7 8 9 8 6
2 5 2 1 1 2 3 3 6 5 12 10 12 8 6 5 3 1 4 5 5 5 5 5 4 4 5 8 9 9 9 10 9 10 7 5 5 4 5 8 7 7 8 6
5 2 1 2 4 6 1 2 4 5 7 3 6 3 5 2 2 3 1 4 4 2 2 3 3 4 6 7 7 8 8 8 8 9 7 8 5 4 4 6 6 5 6 6
3 2 1 3 4 6 4 3 2 2 3 7 2 5 6 2 3 4 2 3 3 3 3 3 2 2 3 4 7 6 6 7 7 7 7 6 5 4 5 5 8 7 6 6
4 1 3 4 1 4 5 4 3 2 1 3 1 4 1 4 4 2 2 2 3 4 4 3 2 1 2 3 5 5 6 6 7 7 7 8 7 6 5 5 6 5 5 5
1 2 2 2 3 3 5 5 3 2 2 2 2 4 6 2 1 3 4 5 4 4 5 4 3 2 2 3 4 4 6 6 7 7 7 6 5 7 6 5 3 5 5 4
2 3 1 2 3 3 3 5 2 5 4 4 2 5 1 2 1 4 4 5 5 5 4 5 3 2 1 2 4 4 5 6 7 6 5 5 6 4 5 5 4 2 4 5
3 2 1 2 2 2 2 1 2 0 3 3 2 5 5 2 4 3 3 2 5 4 5 5 2 3 2 3 3 4 5 5 5 6 7 6 5 6 5 6 5 4 2 3
1 1 0 2 2 3 2 3 1 2 4 5 3 5 2 5 6 4 3 2 3 3 5 5 4 3 2 3 3 2 3 4 4 4 3 4 4 5 6 5 5 4 4 3
3 1 1 2 5 3 4 3 2 1 1 4 5 1 3 4 5 4 2 1 5 5 4 4 4 3 2 3 3 3 3 4 4 4 4 3 5 5 5 5 6 6 6 5
4 1 2 2 1 1 3 3 4 3 3 1 2 8 1 3 1 1 3 3 4 4 4 3 3 4 3 2 2 3 3 4 4 3 3 4 3 4 5 5 6 7 7 6
4 2 1 2 2 1 5 6 5 3 2 6 2 3 3 3 4 6 7 5 4 4 4 2 3 4 4 1 1 2 3 4 3 2 3 3 3 4 5 5 6 6 6 6
3 2 4 3 2 3 4 6 12 6 4 6 10 11 10 7 8 6 5 5 5 5 3 4 3 4 3 2 1 1 3 3 4 4 5 6 5 5 4 4 4 5 5 6
3 4 2 4 5 3 4 5 11 13 10 9 3 8 15 6 7 7 5 5 4 6 5 5 4 4 4 3 2 1 3 3 4 5 4 5 5 4 4 5 5 5 5 6
4 2 1 4 1 4 7 10 12 17 10 15 13 25 15 12 7 4 7 6 6 6 7 6 5 6 5 4 4 4 2 3 4 5 4 4 4 4 4 4 6 6 6 6
6 3 2 4 1 3 9 12 17 9 8 11 13 14 7 6 4 6 7 9 8 8 6 7 7 7 5 6 6 6 6 5 4 5 3 3 5 6 8 7 6 5 6 6
6 4 1 3 2 6 4 3 4 15 8 20 14 12 6 4 3 7 8 8 9 8 7 7 7 6 8 7 4 4 6 5 5 4 4 3 3 4 3 4 6 6 5 5
1 4 3 3 4 9 4 5 7 9 8 23 26 21 12 4 5 11 12 13 10 7 6 6 7 7 8 8 7 6 5 3 3 4 4 3 3 3 3 4 5 6 6 5
2 4 5 3 5 6 1 3 4 3 7 2 18 14 11 8 6 6 3 7 8 7 6 7 7 6 7 8 8 6 5 6 6 5 4 4 4 4 4 3 3 3 4 4
6 4 11 11 7 8 6 8 6 4 5 4 3 9 12 10 5 2 4 4 5 5 7 6 8 7 7 8 7 6 5 6 4 5 5 4 3 3 4 5 3 2 3 3
13 12 7 6 6 12 8 7 9 2 1 2 2 5 11 10 3 2 3 4 5 7 6 6 6 6 6 7 7 7 8 5 5 4 3 4 3 3 2 3 3 4 3 3
8 8 9 13 11 1 13 3 8 3 0 1 1 3 7 6 6 4 5 6 6 7 6 6 6 5 4 6 6 6 4 6 6 5 3 3 3 3 4 5 5 4 4 4
6 3 3 2 8 13 8 12 7 4 6 3 3 3 6 7 8 6 6 6 6 5 5 5 6 6 7 7 9 8 6 6 7 7 6 4 3 3 3 3 3 5 5 5
3 11 7 5 9 6 10 13 14 11 11 9 7 6 7 8 9 10 7 7 7 6 4 5 7 7 8 7 9 7 6 7 8 6 5 6 6 6 5 5 5 5 5 7
7 8 9 8 10 7 7 4 7 10 11 12 8 7 8 9 11 7 8 6 7 7 4 5 7 7 9 7 8 7 8 9 8 8 7 7 7 6 6 5 5 12 10 11
Wind_Direction
25 73 59 44 39 90 69 306 302 323 25 320 288 305 304 347 277 263 269 276 285 292 4 303 318 324 322 334 340 350 345 350 349 350 348 342 342 333 347 348 5 44 17 201
199 79 79 53 12 95 61 322 356 306 311 311 297 304 253 263 318 307 306 305 300 292 277 285 302 327 342 334 345 353 350 351 353 354 344 319 317 327 327 338 350 24 17 358
36 83 127 302 271 285 75 3 353 308 316 262 284 244 216 183 248 273 285 299 285 270 284 305 321 332 345 341 345 351 349 348 356 356 343 342 317 318 6 351 336 22 6 8
69 100 184 270 289 307 283 90 305 306 328 337 340 317 180 188 306 199 302 324 340 321 240 281 310 340 6 337 344 349 351 347 2 360 354 359 349 352 348 323 314 1 6 10
97 151 199 272 3 317 35 298 299 297 293 313 188 245 107 179 303 41 12 334 328 326 314 297 306 5 5 344 343 350 354 348 9 2 2 349 6 345 315 313 329 354 2 10
81 72 343 7 343 304 319 249 218 242 283 252 169 293 86 345 337 338 12 5 318 319 296 261 208 188 50 46 351 352 358 3 6 2 9 356 353 348 324 333 335 348 340 354
207 137 120 318 269 210 268 288 325 283 231 293 155 259 273 295 253 282 301 315 316 301 287 284 258 276 61 34 16 5 355 8 359 7 1 352 351 335 320 343 336 333 326 351
202 265 196 35 336 343 10 318 125 291 326 360 124 237 164 123 200 263 263 274 287 271 280 268 263 222 89 60 28 19 15 13 360 13 354 356 359 324 322 341 321 318 343 333
143 225 130 36 353 323 63 267 41 144 142 274 251 249 252 204 212 199 234 259 277 295 294 297 272 232 162 107 71 13 14 31 32 5 353 357 350 348 335 326 323 330 353 318
158 308 337 72 259 122 260 125 139 83 301 272 207 277 289 203 208 195 230 262 314 308 294 292 279 229 166 119 109 92 32 29 28 26 21 353 346 347 334 328 322 324 320 322
119 171 81 273 203 166 162 205 220 133 248 299 315 254 184 163 178 193 163 309 324 323 305 302 276 253 174 156 130 109 84 35 34 28 16 359 1 353 338 338 338 338 325 339
152 233 215 231 78 328 283 284 252 186 167 226 294 275 325 107 131 242 241 262 313 315 303 300 255 240 235 187 147 112 85 70 51 17 9 30 12 6 4 358 349 349 336 350
161 218 281 264 191 176 243 194 230 75 100 208 253 268 2 284 263 249 254 256 286 285 283 266 218 238 242 214 173 111 111 99 77 66 63 60 30 18 15 8 1 360 358 359
154 232 226 279 84 97 196 209 205 200 187 176 228 293 282 282 263 263 257 262 263 250 255 271 231 222 230 210 207 91 88 64 50 46 38 31 18 10 14 4 26 28 20 28
228 247 210 261 240 240 250 189 194 207 215 212 206 229 266 242 252 247 237 268 232 254 250 229 230 228 247 210 191 191 124 82 70 51 47 41 17 18 19 20 33 47 51 50
180 257 180 271 174 233 263 244 212 223 238 262 277 285 275 296 273 222 237 236 238 234 232 222 211 211 218 214 210 180 214 158 126 107 78 46 38 31 27 30 40 39 42 47
175 193 185 263 299 286 267 227 208 191 213 212 215 232 260 279 265 257 243 209 219 223 201 194 200 202 203 192 197 192 169 166 150 132 121 65 43 31 20 13 35 38 43 48
162 174 190 279 333 251 246 152 188 212 225 217 254 244 210 243 266 274 250 231 214 210 195 188 176 175 189 182 196 176 162 172 156 144 120 89 74 76 64 23 22 26 27 47
251 190 203 245 231 313 303 193 173 188 277 208 223 241 223 206 303 265 223 219 223 198 199 194 175 164 168 178 178 178 175 170 172 161 143 131 99 81 65 66 60 31 9 19
156 273 247 157 235 239 332 167 179 188 281 38 209 230 205 152 234 246 155 181 204 194 170 174 152 141 153 174 173 182 192 185 193 184 164 159 152 139 118 66 57 72 76 37
164 186 216 223 258 280 243 154 153 153 261 337 257 215 174 195 223 41 104 125 137 148 156 153 160 171 175 160 164 187 191 217 190 151 151 162 160 155 142 130 103 91 81 91
170 167 183 196 227 261 135 106 204 161 19 344 294 201 193 216 277 140 180 152 153 157 152 169 172 176 164 156 170 189 204 177 149 142 158 162 159 159 151 135 140 127 125 97
212 192 181 192 203 343 201 235 202 130 173 308 251 205 204 223 238 199 207 192 195 176 175 172 181 180 163 160 186 194 208 152 147 143 176 194 177 178 170 172 165 161 158 153
231 146 211 135 234 233 226 256 250 216 233 217 210 209 190 218 213 223 219 201 206 194 188 169 172 196 207 194 201 210 161 157 162 177 179 172 181 215 223 221 195 183 183 185
155 147 158 264 280 264 243 232 237 234 219 231 212 200 206 223 234 216 211 214 219 211 182 182 193 207 221 186 209 196 175 162 180 182 181 188 194 193 206 225 211 216 224 193
187 172 183 209 215 215 247 204 188 213 223 232 206 221 221 206 230 211 219 203 208 208 184 200 214 212 227 197 202 182 176 181 185 190 192 197 194 196 205 203 223 236 246 220